{"data":{"norad_id":65906,"intl_designator":"2025-224AA","name":"STARLINK-35385","alt_names":[],"object_type":"PAYLOAD","status":"ACTIVE","operator":null,"country":"US","launch_date":"2025-10-07","launch_site_code":"AFETR","launch_vehicle":null,"mission":null,"orbit_class":"UNKNOWN","rcs_meters":null,"size_class":null,"mass_kg":null,"dimensions":null,"purposes":["comms"],"wikipedia_slug":null,"has_3d_model":false,"image_url":null,"decayed_at":null,"tle_current":{"epoch":"2026-05-25T00:17:58.126848Z","epoch_age_seconds":77171,"freshness":"FRESH","line1":"1 65906U 25224AA  26145.01247832  .00030863  00000+0  92061-3 0  9996","line2":"2 65906  53.1591  15.8392 0000813  86.8729 273.2367 15.34406943 36550","mean_motion":15.34406943,"eccentricity":8.13e-5,"inclination_deg":53.1591,"raan_deg":15.8392,"arg_perigee_deg":86.8729,"mean_anomaly_deg":273.2367,"bstar":0.00092061,"rev_number":3655,"period_min":93.847333431937,"perigee_km":462.12644559192,"apogee_km":463.23876285957,"semimajor_km":6840.8196042257,"source":"CELESTRAK","updated_at":"2026-05-25T13:38:20.984594Z"}}}